Starlink 30576

operational
NORAD ID: 58065 Int'l Des: 2023-158 Owner: SPXS Country: US Constellation: starlink
LEOCIRCULAR

Starlink 30576について

説明を読み込み中...

リアルタイム位置

3D地球を読み込み中...

次回通過

高度履歴

Altitude vs Time

uPlot chart will show altitude changes over time

軌道要素

1 58065U 23158Q 25353.68131557 .00000197 00000-0 29627-4 0 9994
2 58065 43.0038 105.2783 0001434 267.4224 92.6455 15.02545373121492
Epoch: Dec 19, 2025 • Age: 8 hours

現在のステータス

高度 559.5 km
速度 7.59 km/s
衛星直下点 24.45°N, 36.18°E
打ち上げ日 Oct 13, 2023
運用期間 2.1 years
タイプ internet

技術仕様

分類 Payload
質量 730.00 kg
乾燥質量 700.00 kg
総質量 730.00 kg
長さ 0.30 m
直径 4.10 m
スパン 29.00 m
形状 Box + pan
製造者 SPXS
バスタイプ Starlink V2M
フェーズステータス In Orbit
所有者/国 SPXS/US

大規模コンステレーション

Loading constellations...